Date String (YYYY-MM-DD hh:mm:ss) UTC,Instrument flags,Ambient pressure (hPa),Sample flow (lpm),Bypass flow (lpm),Sample temperature (°C),Ambient temperature (°C),ASC tube jacket temperature (°C),LED temperature (°C),Box temperature (°C),Sample RH (%),Span deviation,Mass concentration (μg/m³),Mass concentration (μg/m³),Mass concentration (μg/m³)
DateTimeUTC,F1_M11,P_M11,Q1_M11,Q2_M11,T1_M11,T2_M11,T3_M11,T4_M11,T5_M11,U1_M11,ZSPAN_M11,X0_M11,X2_M11,X1_M11
2021-09-17 08:00:00,,0830.2,5.00,0.00,29.8,28.5,00.0,38.9,31.5,20.7,0003.0,0050.88,0032.65,0029.23
2021-09-17 08:01:00,,0830.3,5.00,0.00,29.8,28.6,00.0,38.9,31.5,20.7,0003.0,0051.20,0032.85,0029.39
2021-09-17 08:02:00,,0830.3,5.00,0.00,29.8,28.7,00.0,38.9,31.5,20.7,0003.1,0050.18,0032.95,0029.44
2021-09-17 08:03:00,,0830.3,5.01,0.00,29.8,28.7,00.0,38.9,31.6,20.7,0003.0,0051.08,0032.98,0029.44
2021-09-17 08:04:00,,0830.4,4.99,0.00,29.8,28.8,00.0,38.9,31.6,20.7,0002.8,0052.01,0032.82,0029.31
2021-09-17 08:05:00,,0830.4,5.01,0.00,29.8,28.8,00.0,38.9,31.6,20.7,0002.9,0050.79,0032.56,0029.13
2021-09-17 08:06:00,,0830.4,4.99,0.00,29.9,28.9,00.0,38.9,31.7,20.7,0002.9,0049.44,0032.34,0028.89
2021-09-17 08:07:00,,0830.5,4.99,0.00,29.9,28.9,00.0,38.9,31.6,20.7,0002.9,0048.59,0032.08,0028.68
2021-09-17 08:08:00,,0830.5,5.01,0.00,29.9,28.9,00.0,38.9,31.7,20.7,0002.9,0048.79,0031.94,0028.55
2021-09-17 08:09:00,,0830.6,4.99,0.00,29.9,29.0,00.0,38.9,31.7,20.6,0002.9,0048.43,0031.78,0028.47
2021-09-17 08:10:00,,0830.6,5.01,0.00,29.9,29.0,00.0,39.0,31.7,20.6,0002.9,0048.60,0031.63,0028.32
2021-09-17 08:11:00,,0830.6,4.99,0.00,29.9,29.0,00.0,39.0,31.8,20.6,0003.0,0048.36,0031.39,0028.10
2021-09-17 08:12:00,,0830.7,5.01,0.00,30.0,29.0,00.0,39.0,31.8,20.6,0002.9,0048.64,0031.11,0027.84
2021-09-17 08:13:00,,0830.8,4.99,0.00,30.0,29.1,00.0,39.0,31.8,20.6,0003.0,0049.03,0030.92,0027.63
2021-09-17 08:14:00,,0830.8,5.02,0.00,30.0,29.1,00.0,39.0,31.8,20.5,0003.0,0049.22,0030.80,0027.45
2021-09-17 08:15:00,,0830.8,4.99,0.00,30.0,29.1,00.0,39.0,31.8,20.5,0003.2,0049.13,0030.83,0027.40
2021-09-17 08:16:00,,0830.8,5.00,0.00,30.0,29.1,00.0,39.0,31.8,20.4,0003.2,0050.09,0030.92,0027.46
2021-09-17 08:17:00,,0830.9,5.00,0.00,30.0,29.1,00.0,39.1,31.9,20.4,0003.4,0051.06,0030.99,0027.52
2021-09-17 08:18:00,,0830.9,5.00,0.00,30.1,29.1,00.0,39.1,31.9,20.4,0003.4,0051.36,0031.02,0027.53
2021-09-17 08:19:00,,0830.9,5.00,0.00,30.1,29.2,00.0,39.1,31.9,20.4,0003.3,0050.98,0030.87,0027.43
2021-09-17 08:20:00,,0831.0,5.00,0.00,30.1,29.2,00.0,39.1,31.9,20.4,0003.3,0051.18,0030.68,0027.22
2021-09-17 08:21:00,,0831.0,5.01,0.00,30.1,29.2,00.0,39.1,31.9,20.4,0003.2,0051.72,0030.35,0026.97
2021-09-17 08:22:00,,0831.0,5.00,0.00,30.1,29.2,00.0,39.1,31.9,20.4,0003.1,0051.67,0030.11,0026.74
2021-09-17 08:23:00,,0831.1,4.99,0.00,30.1,29.2,00.0,39.1,31.9,20.3,0003.1,0049.98,0029.80,0026.52
2021-09-17 08:24:00,,0831.1,4.99,0.00,30.1,29.2,00.0,39.1,31.9,20.3,0003.0,0049.14,0029.49,0026.28
2021-09-17 08:25:00,,0831.2,5.01,0.00,30.1,29.3,00.0,39.1,31.9,20.3,0002.9,0049.27,0029.20,0026.06
2021-09-17 08:26:00,,0831.2,4.99,0.00,30.1,29.3,00.0,39.2,31.9,20.3,0002.8,0049.23,0028.89,0025.78
2021-09-17 08:27:00,,0831.2,4.99,0.00,30.1,29.3,00.0,39.2,32.0,20.3,0002.8,0048.11,0028.47,0025.47
2021-09-17 08:28:00,,0831.2,5.01,0.00,30.1,29.3,00.0,39.2,32.0,20.3,0002.8,0047.55,0028.14,0025.19
2021-09-17 08:29:00,,0831.2,5.00,0.00,30.1,29.3,00.0,39.2,32.0,20.3,0002.9,0047.32,0027.89,0024.94
2021-09-17 08:30:00,,0831.2,5.00,0.00,30.2,29.3,00.0,39.2,31.9,20.3,0003.2,0048.65,0027.84,0024.80
2021-09-17 08:31:00,,0831.2,4.99,0.00,30.2,29.3,00.0,39.2,32.0,20.2,0003.2,0049.92,0027.74,0024.68
2021-09-17 08:32:00,,0831.2,5.01,0.00,30.2,29.3,00.0,39.2,32.0,20.2,0003.1,0049.35,0027.74,0024.65
2021-09-17 08:33:00,,0831.3,4.99,0.00,30.2,29.3,00.0,39.2,32.0,20.2,0003.2,0048.96,0027.78,0024.68
2021-09-17 08:34:00,,0831.3,5.00,0.00,30.2,29.4,00.0,39.3,32.0,20.2,0003.1,0048.81,0027.85,0024.71
2021-09-17 08:35:00,,0831.3,5.01,0.00,30.2,29.4,00.0,39.3,32.0,20.2,0002.9,0048.35,0027.88,0024.73
2021-09-17 08:36:00,,0831.4,4.99,0.00,30.2,29.4,00.0,39.3,32.0,20.2,0002.9,0046.51,0027.77,0024.70
2021-09-17 08:37:00,,0831.4,5.01,0.00,30.2,29.4,00.0,39.3,32.0,20.1,0002.9,0045.79,0027.67,0024.68
2021-09-17 08:38:00,,0831.4,4.99,0.00,30.2,29.4,00.0,39.3,32.0,20.1,0002.9,0046.51,0027.67,0024.64
2021-09-17 08:39:00,,0831.4,5.00,0.00,30.3,29.4,00.0,39.3,32.0,20.1,0002.8,0046.67,0027.60,0024.54
2021-09-17 08:40:00,,0831.5,5.00,0.00,30.3,29.4,00.0,39.3,32.0,20.1,0002.4,0047.30,0027.49,0024.45
2021-09-17 08:41:00,,0831.5,5.01,0.00,30.3,28.9,00.0,39.3,31.9,20.1,0002.2,0047.00,0027.25,0024.32
2021-09-17 08:42:00,,0831.5,5.00,0.00,30.1,26.7,00.0,39.3,31.3,20.2,0002.4,0047.03,0027.24,0024.26
2021-09-17 08:43:00,,0831.5,4.99,0.00,30.0,26.1,00.0,39.2,31.1,20.3,0002.5,0049.63,0027.24,0024.19
2021-09-17 08:44:00,,0831.5,5.00,0.00,29.8,26.4,00.0,39.1,31.1,20.4,0002.4,0050.21,0027.19,0024.15
2021-09-17 08:45:00,,0831.5,5.01,0.00,29.8,26.8,00.0,39.1,31.2,20.6,0002.2,0052.58,0027.19,0024.16
2021-09-17 08:46:00,,0831.5,5.01,0.00,29.8,27.3,00.0,39.0,31.2,20.6,0002.3,0053.35,0027.22,0024.16
2021-09-17 08:47:00,,0831.5,5.00,0.00,29.7,27.6,00.0,39.0,31.3,20.6,0002.4,0053.54,0027.31,0024.21
2021-09-17 08:48:00,,0831.5,4.99,0.00,29.8,27.9,00.0,39.0,31.4,20.6,0002.5,0053.38,0027.41,0024.34
2021-09-17 08:49:00,,0831.6,5.00,0.00,29.8,28.1,00.0,39.0,31.4,20.5,0002.6,0053.43,0027.57,0024.44
2021-09-17 08:50:00,,0831.6,5.01,0.00,29.8,28.3,00.0,39.0,31.5,20.5,0002.8,0052.72,0027.71,0024.62
2021-09-17 08:51:00,,0831.7,4.99,0.00,29.8,28.4,00.0,39.0,31.5,20.4,0003.0,0051.79,0027.91,0024.78
2021-09-17 08:52:00,,0831.7,5.01,0.00,29.8,28.5,00.0,39.0,31.5,20.3,0003.1,0051.05,0028.10,0024.92
2021-09-17 08:53:00,,0831.8,4.99,0.00,29.8,28.6,00.0,39.0,31.6,20.3,0003.1,0049.59,0028.09,0025.00
2021-09-17 08:54:00,,0831.7,5.00,0.00,29.8,28.7,00.0,39.0,31.6,20.2,0003.2,0047.50,0028.11,0025.06
2021-09-17 08:55:00,,0831.7,5.01,0.00,29.8,28.8,00.0,39.0,31.6,20.2,0003.4,0047.00,0028.15,0025.12
2021-09-17 08:56:00,,0831.7,5.00,0.00,29.9,28.8,00.0,39.0,31.6,20.2,0003.6,0045.21,0028.13,0025.12
2021-09-17 08:57:00,,0831.8,5.01,0.00,29.9,28.9,00.0,39.0,31.6,20.1,0003.6,0044.66,0028.08,0025.09
2021-09-17 08:58:00,,0831.8,4.98,0.00,29.9,28.9,00.0,39.0,31.7,20.1,0003.5,0044.97,0028.03,0025.00
2021-09-17 08:59:00,,0831.8,5.01,0.00,29.9,28.9,00.0,39.0,31.7,19.9,0003.8,0044.54,0027.86,0024.73
